Regional Weather Roundup
Issued by NWS Mt. Holly, NJ

Home | Current Version | Previous Version | Text Only | Print | Product List | Glossary On
Versions: 1 2 3 4 5 6 7 8 9 10 11 12 13 14 15 16 17 18 19 20 21 22 23 24 25 26 27 28 29 30 31 32 33 34 35 36 37 38 39 40 41 42 43 44 45 46 47 48 49 50
000
ASUS41 KPHI 311710
RWRPHI

REGIONAL WEATHER ROUNDUP
NATIONAL WEATHER SERVICE MOUNT HOLLY NJ
100 PM EDT THU JUL 31 2014

NOTE:  "FAIR" INDICATES FEW OR NO CLOUDS BELOW 12,000 FEET WITH NO
SIGNIFICANT WEATHER AND/OR OBSTRUCTIONS TO VISIBILITY.

 * = STATION DOES NOT REPORT PRECIPITATION (E.G. RAIN, SNOW, ETC.)
        OR FOG.

NJZ015>026-311800-
SOUTHERN NEW JERSEY

CITY           SKY/WX    TMP DP  RH WIND       PRES   REMARKS
POMONA         SUNNY     82  59  45 SW12      30.11S
RIO GRANDE*    SUNNY     82  61  47 SW10G16   30.13S
MILLVILLE      MOSUNNY   80  62  54 S8        30.11S
WRIGHTSTOWN    MOSUNNY   82  61  49 SW10      30.08S
MOUNT HOLLY    MOSUNNY   82  60  47 SW8       30.09F
TRENTON        MOSUNNY   80  60  50 SW12      30.08F

$$
NJZ001>014-311800-
NORTHERN NEW JERSEY

CITY           SKY/WX    TMP DP  RH WIND       PRES   REMARKS
SUSSEX         MOSUNNY   79  58  48 W9        30.08F
ANDOVER*         N/A     78  59  51 W8G16     30.10S
MORRISTOWN     PTSUNNY   81  61  50 SW8G21    30.09F
NEWARK         MOSUNNY   83  59  44 S14G23    30.08F
TETERBORO      PTSUNNY   83  58  42 S13G20    30.07F
CALDWELL       PTSUNNY   79  59  50 VRB5      30.09F
SOMERVILLE     PTSUNNY   78  61  55 VRB5      30.07F
ALLAIRE*       SUNNY     81  61  50 W8        30.10F
TOMS RIVER*    PTSUNNY   82  61  47 SW8       30.10F

$$
PAZ043-044-047-054-055-060>062-066>071-311800-
EASTERN PENNSYLVANIA

CITY           SKY/WX    TMP DP  RH WIND       PRES   REMARKS
PHILADELPHIA   MOSUNNY   82  62  50 SW14      30.10S
NORTH PHILA    PTSUNNY   81  58  45 S12G17    30.10F
BLUE BELL      SUNNY     81  63  54 S10G16    30.09S
DOYLESTOWN     PTSUNNY   78  59  51 W6        30.09F
QUAKERTOWN*    MOSUNNY   79  61  53 W6        30.11S
POTTSTOWN      PTSUNNY   79  60  52 S7        30.11F
LANCASTER      SUNNY     78  59  51 SW7       30.10S
COATESVILLE    SUNNY     77  59  53 S5        30.12S
READING        MOSUNNY   78  60  53 W6        30.08F
ALLENTOWN      MOSUNNY   79  58  48 W13G22    30.09S
MOUNT POCONO   MOSUNNY   73  54  51 SW14      30.13S
HAZLETON       PTSUNNY   73  59  60 SW7       30.15S
WILKES BARRE   SUNNY     77  55  46 W14G20    30.09S

$$
DEZALL-MDZ008-012-015-019-020-311800-
DELAWARE AND EASTERN MARYLAND

CITY           SKY/WX    TMP DP  RH WIND       PRES   REMARKS
WILMINGTON     PTSUNNY   81  66  60 SW12G17   30.10F
DOVER          PTSUNNY   82  64  55 S14       30.10F
GEORGETOWN     MOSUNNY   83  62  49 S10       30.12F
PATUXENT       MOSUNNY   83  60  45 SW8       30.11F
OCEAN CITY     PTSUNNY   80  68  66 S10G21    30.13S
WALLOPS ISLAND PTSUNNY   81  67  62 S10       30.14S
CAMBRIDGE      SUNNY     81  57  44 S6        30.11F
SALISBURY      MOSUNNY   85  61  44 SW13      30.12S

$$
PAZ001-021-NYZ056-072-MDZ011-DCZ001-311800-
OTHER NEARBY LOCATIONS

CITY           SKY/WX    TMP DP  RH WIND       PRES   REMARKS
HARRISBURG     MOSUNNY   79  62  56 VRB3      30.08F
STATE COLLEGE  MOSUNNY   70  63  78 SW6       30.11F
WILLIAMSPORT   CLOUDY    68  59  73 SE5       30.10S
BINGHAMTON     CLOUDY    66  58  75 SW7       30.09S
NEW YORK CITY  PTSUNNY   79  60  52 MISG      30.11F
BALTIMORE      MOSUNNY   83  56  39 S6        30.09F
WASHINGTON DC  MOSUNNY   83  63  50 S13       30.10F

$$



USA.gov is the U.S. government's official web portal to all federal, state and local government web resources and services.